This demonstration page uses our WeatherBlox Daily Observations layout. Learn more.

Hourly Observations for October 4, 2020

Temp ( °F °C ) Dew Point ( °F °C ) Humidity (%) Winds ( mph kmh ) Pressure ( in mb ) Visibility ( mi km ) Precip ( " mm )
12:53 am 00:53 Clear 44 6.7 32 0 63 63 N 3 6 30.14 1021 10 16.0934 0 0
1:53 am 01:53 Clear 40 4.4 32 0 73 73 NW 6 9 30.14 1021 10 16.0934 0 0
2:53 am 02:53 Clear 42 5.6 32 0 68 68 NW 6 9 30.12 1020 10 16.0934 0 0
3:53 am 03:53 Clear 38 3.3 31 -0.6 76 76 N 5 7 30.13 1020 10 16.0934 0 0
4:53 am 04:53 Clear 38 3.3 30 -1.1 73 73 N 7 11 30.11 1020 10 16.0934 0 0
5:53 am 05:53 Clear 34 1.1 29 -1.7 82 82 NW 6 9 30.14 1021 10 16.0934 0 0
6:53 am 06:53 Clear 34 1.1 30 -1.1 85 85 NW 3 6 30.16 1022 10 16.0934 0 0
7:53 am 07:53 Sunny 39 3.9 31 -0.6 73 73 WNW 3 6 30.16 1021 10 16.0934 0 0
8:53 am 08:53 Sunny 49 9.4 34 1.1 56 56 WNW 7 11 30.13 1020 10 16.0934 0 0
9:53 am 09:53 Sunny 57 13.9 35 1.7 44 44 NNW 5 7 30.11 1020 10 16.0934 0 0
10:53 am 10:53 Sunny 64 17.8 34 1.1 33 33 Calm 30.08 1019 10 16.0934 0 0
11:53 am 11:53 Sunny 69 20.6 34 1.1 27 27 VRB 3 6 30.04 1017 10 16.0934 0 0
12:53 pm 12:53 Sunny 74 23.3 33 0.6 22 22 Calm 30.01 1016 10 16.0934 0 0
1:53 pm 13:53 Sunny 77 25 34 1.1 21 21 VRB 3 6 29.97 1015 10 16.0934 0 0
2:53 pm 14:53 Sunny 80 26.7 33 0.6 18 18 S 3 6 29.93 1014 10 16.0934 0 0
3:53 pm 15:53 Sunny 81 27.2 33 0.6 18 18 SE 6 9 29.91 1013 10 16.0934 0 0
4:53 pm 16:53 Sunny 81 27.2 33 0.6 18 18 ESE 7 11 29.89 1012 10 16.0934 0 0
5:53 pm 17:53 Sunny 75 23.9 36 2.2 24 24 ESE 7 11 29.91 1013 10 16.0934 0 0
6:53 pm 18:53 Clear 65 18.3 34 1.1 32 32 E 7 11 29.93 1014 10 16.0934 0 0
7:53 pm 19:53 Clear 58 14.4 33 0.6 39 39 E 6 9 29.94 1014 9 14.48406 0 0
8:53 pm 20:53 Clear 58 14.4 34 1.1 41 41 E 5 7 29.92 1013 10 16.0934 0 0
9:53 pm 21:53 Clear 55 12.8 33 0.6 44 44 ENE 6 9 29.91 1013 10 16.0934 0 0
10:53 pm 22:53 Clear 52 11.1 34 1.1 50 50 ENE 5 7 29.89 1012 10 16.0934 0 0
11:53 pm 23:53 Clear 49 9.4 33 0.6 55 55 NNE 5 7 29.88 1012 10 16.0934 0 0

Powered by AerisWeather